Location: Los Gatos B&B
(42.6926°N, 77.0646°W)
Time: 08:04:53
(UTC-04:00)

Amateur Radio Satellites - All Passes

Search period start: 29 April 2016 07:34
Search period end: 30 April 2016 07:34
Location: Los Gatos B&B, 42.6926°N, 77.0646°W

Satellite Date Start Highest point End Downlink Frequencies (MHz)
Time Altitude Azimuth
Cosmos 2491 29 Apr 07:35:11 07:43:54 70° 93° (E) 07:52:41 435.465 / 435.565
M-CUBED/EXP-1 PRIME 29 Apr 07:36:39 07:40:02 25° 99° (E) 07:43:12 437.505
NOAA 18 29 Apr 07:38:29 07:43:58 77° 286° (WNW) 07:49:24 137.9125
AIST 2 29 Apr 07:43:09 07:46:53 33° 244° (WSW) 07:50:36 435.215
GOMX 1 29 Apr 07:46:00 07:51:26 56° 99° (E) 07:56:39 467.674
BRITE-PL 29 Apr 07:50:21 07:56:02 74° 285° (WNW) 08:01:41 437.365/2234.400
SO-50 29 Apr 07:52:51 07:56:54 26° 113° (ESE) 08:00:59 436.795
AUBIESAT-1 29 Apr 07:58:51 08:02:35 36° 102° (ESE) 08:06:02 437.475
CUTE-I 29 Apr 08:01:41 08:06:56 61° 288° (WNW) 08:12:09 437.470
DOVE 4 29 Apr 08:03:40 08:08:36 41° 97° (E) 08:13:17 437.250
LilacSat-2 29 Apr 08:18:06 08:21:21 27° 291° (WNW) 08:24:35 437.200
HO-68 29 Apr 08:23:14 08:29:08 27° 94° (E) 08:35:01 435.675
SEEDS 29 Apr 08:24:41 08:26:35 13° 90° (E) 08:28:28 437.485
COMPASS 1 29 Apr 08:36:02 08:37:43 12° 90° (E) 08:39:23 437.405
STRAND 1 29 Apr 08:43:22 08:47:08 21° 267° (W) 08:50:55 437.568
Cubesat XI-IV 29 Apr 08:45:22 08:49:45 27° 295° (WNW) 08:54:07 437.490
CANX-2 29 Apr 08:50:09 08:54:06 38° 98° (E) 08:58:02 2200.000
YUBILEINY 29 Apr 08:51:32 08:57:51 23° 281° (W) 09:04:12 435.215
CUBEBUG 2 29 Apr 08:58:04 09:00:16 14° 89° (E) 09:02:25 437.445
NOAA 15 29 Apr 08:59:54 09:02:42 15° 302° (WNW) 09:05:30 137.62
RS-15 29 Apr 09:07:25 09:18:55 49° 250° (WSW) 09:30:24 29.354- 29.394
PRISM 29 Apr 09:08:26 09:12:12 37° 262° (W) 09:16:01 437.425
AAUSAT CUBESAT 2 29 Apr 09:09:38 09:12:59 23° 94° (E) 09:16:19 437.432
Cosmos 2504 29 Apr 09:11:02 09:18:18 57° 268° (W) 09:26:04 435.465 / 435.565
M-CUBED/EXP-1 PRIME 29 Apr 09:11:05 09:14:34 27° 298° (WNW) 09:17:49 437.505
ISS 29 Apr 09:12:04 09:15:12 46° 141° (SE) 09:18:21 145.825
CINEMA 3 29 Apr 09:17:46 09:22:32 71° 102° (ESE) 09:27:02 145.822/145.860
NOAA 18 29 Apr 09:21:44 09:23:42 12° 305° (NW) 09:25:40 137.9125
CUTE 1.7 + AOD 2 29 Apr 09:23:35 09:27:49 82° 102° (ESE) 09:32:02 437.475
GOMX 1 29 Apr 09:24:55 09:29:03 22° 297° (WNW) 09:33:06 467.674
BRITE-PL 29 Apr 09:31:25 09:33:32 12° 303° (WNW) 09:35:39 437.365/2234.400
SO-50 29 Apr 09:32:30 09:37:12 44° 311° (NW) 09:41:54 436.795
AUBIESAT-1 29 Apr 09:33:55 09:36:47 19° 301° (WNW) 09:39:31 437.475
Cosmos 2491 29 Apr 09:34:18 09:41:30 27° 294° (WNW) 09:48:48 435.465 / 435.565
ZACube-1 29 Apr 09:39:04 09:41:56 17° 92° (E) 09:44:45 437.345
DOVE 4 29 Apr 09:41:44 09:46:02 26° 295° (WNW) 09:50:10 437.250
UNISAT 6 29 Apr 09:56:15 10:00:19 31° 69° (ENE) 10:04:22 437.425
SEEDS 29 Apr 09:58:32 10:02:38 55° 286° (WNW) 10:06:43 437.485
COMPASS 1 29 Apr 10:09:33 10:13:38 57° 287° (WNW) 10:17:43 437.405
HO-68 29 Apr 10:10:15 10:17:15 60° 292° (WNW) 10:24:13 435.675
TIGRISAT 29 Apr 10:14:49 10:19:15 44° 71° (ENE) 10:23:39 435.000
CANX-2 29 Apr 10:26:42 10:29:42 19° 294° (WNW) 10:32:42 2200.000
Oscar 11 29 Apr 10:28:27 10:32:46 73° 102° (ESE) 10:37:03 145.826/435.025
CUBEBUG 2 29 Apr 10:32:59 10:37:17 54° 287° (WNW) 10:41:26 437.445
UWE-3 29 Apr 10:34:09 10:38:29 76° 284° (WNW) 10:42:40 435.000/436.395/437.385
FUNcube-1 29 Apr 10:34:11 10:38:26 68° 101° (ESE) 10:42:33 145.935
NANOSAT C BR1 29 Apr 10:35:22 10:37:50 15° 63° (ENE) 10:40:18 145.865
ANTELSAT 29 Apr 10:37:55 10:42:36 81° 76° (ENE) 10:47:14 437.575/2403.000
GONETS M04 29 Apr 10:41:49 10:47:17 17° 59° (ENE) 10:52:42
AAUSAT CUBESAT 2 29 Apr 10:44:54 10:48:29 29° 291° (WNW) 10:52:04 437.432
ISS 29 Apr 10:48:51 10:51:46 29° 338° (NNW) 10:54:42 145.825
BUGSAT 1 29 Apr 10:54:35 10:55:59 11° 61° (ENE) 10:57:22 437.445
DELFI C3 29 Apr 10:56:22 11:00:22 75° 103° (ESE) 11:04:19 145.870
CINEMA 3 29 Apr 10:56:40 10:58:59 14° 300° (WNW) 11:01:17 145.822/145.860
CUTE 1.7 + AOD 2 29 Apr 11:02:49 11:03:00 10° 299° (WNW) 11:03:12 437.475
ZACube-1 29 Apr 11:14:26 11:18:26 40° 289° (WNW) 11:22:19 437.345
HUMSAT D 29 Apr 11:17:06 11:21:08 54° 100° (E) 11:25:06 437.325/437.525
SO-50 29 Apr 11:17:54 11:18:57 11° 332° (NNW) 11:20:00 436.795
QB50P2 29 Apr 11:22:20 11:26:29 50° 72° (ENE) 11:30:39 145.880/145.840
AIST 1 29 Apr 11:23:37 11:26:29 17° 70° (ENE) 11:29:19
POLYITAN 1 29 Apr 11:24:24 11:28:34 51° 73° (ENE) 11:32:46 437.675
PHONESAT 2.4 29 Apr 11:27:27 11:28:49 12° 150° (SSE) 11:30:11 2401.200-2431.200
DUCHIFAT 1 29 Apr 11:27:45 11:31:52 50° 73° (ENE) 11:36:01 145.980
POPSAT HIP 1 29 Apr 11:28:07 11:32:18 55° 73° (ENE) 11:36:31 437.405
QB50P1 29 Apr 11:31:43 11:35:56 61° 74° (ENE) 11:40:11 145.935-145.965
UNISAT 6 29 Apr 11:32:58 11:37:00 28° 264° (W) 11:41:00 437.425
Cosmos 2499 29 Apr 11:37:10 11:42:18 19° 64° (ENE) 11:47:38 435.465 / 435.565
50 SAT 29 Apr 11:43:10 11:45:12 14° 92° (E) 11:47:14 437.505
UKube-1 29 Apr 11:47:37 11:49:01 11° 90° (E) 11:50:25 .
AISAT 29 Apr 11:52:24 11:55:41 20° 93° (E) 11:58:57 437.250
TIGRISAT 29 Apr 11:52:44 11:56:07 20° 267° (W) 11:59:29 435.000
ESTCUBE 1 29 Apr 11:54:00 11:57:53 27° 95° (E) 12:01:43 437.505/2401.250
HO-68 29 Apr 12:00:48 12:03:31 13° 312° (NW) 12:06:15 435.675
JAS-2 29 Apr 12:03:10 12:07:37 22° 57° (ENE) 12:12:27 435.910
Oscar 11 29 Apr 12:06:48 12:08:18 12° 299° (WNW) 12:09:49 145.826/435.025
NANOSAT C BR1 29 Apr 12:08:57 12:13:07 53° 260° (W) 12:17:20 145.865
FUNcube-1 29 Apr 12:12:34 12:14:05 12° 299° (WNW) 12:15:36 145.935
Oscar 19 29 Apr 12:17:43 12:20:43 16° 60° (ENE) 12:23:44 437.125/150
ANTELSAT 29 Apr 12:18:52 12:19:50 11° 272° (W) 12:20:47 437.575/2403.000
SPROUT 29 Apr 12:24:03 12:26:34 15° 91° (E) 12:29:03 437.525
BUGSAT 1 29 Apr 12:26:32 12:30:45 74° 258° (WSW) 12:35:01 437.445
ISS 29 Apr 12:26:45 12:28:59 17° 359° (N) 12:31:13 145.825
GONETS M04 29 Apr 12:36:51 12:45:41 80° 82° (E) 12:54:24
CUBEBUG 1 29 Apr 12:39:49 12:44:13 59° 101° (E) 12:48:35 437.445
HUMSAT D 29 Apr 12:54:14 12:56:19 14° 297° (WNW) 12:58:22 437.325/437.525
VELOX 1 29 Apr 12:56:20 13:00:51 89° 111° (ESE) 13:05:18 145.980
AIST 1 29 Apr 13:00:07 13:04:20 45° 267° (W) 13:08:32
QB50P2 29 Apr 13:00:08 13:02:35 15° 269° (W) 13:05:01 145.880/145.840
PHONESAT 2.4 29 Apr 13:02:13 13:05:11 38° 166° (SSE) 13:08:10 2401.200-2431.200
POLYITAN 1 29 Apr 13:02:16 13:04:41 15° 269° (W) 13:07:05 437.675
DUCHIFAT 1 29 Apr 13:05:26 13:07:51 15° 269° (W) 13:10:18 145.980
POPSAT HIP 1 29 Apr 13:06:15 13:08:25 14° 269° (W) 13:10:37 437.405
DX 1 29 Apr 13:07:14 13:11:39 79° 284° (WNW) 13:16:01 434.975-435.025
QB50P1 29 Apr 13:10:22 13:12:07 12° 270° (W) 13:13:52 145.935-145.965
TISAT 1 29 Apr 13:13:04 13:15:33 15° 91° (E) 13:18:02 437.305
AO-85 29 Apr 13:13:19 13:17:39 24° 111° (ESE) 13:21:58 145.980
50 SAT 29 Apr 13:15:47 13:19:10 37° 288° (WNW) 13:22:33 437.505
Gurwin Techsat 1B 29 Apr 13:18:14 13:22:22 23° 63° (ENE) 13:26:29 435.225
UKube-1 29 Apr 13:21:11 13:25:31 67° 286° (WNW) 13:29:49 .
AISAT 29 Apr 13:28:07 13:32:19 41° 290° (WNW) 13:36:30 437.250
ITAMSAT 1 29 Apr 13:28:30 13:30:39 13° 57° (ENE) 13:32:48 435.822/435.867
Cosmos 2499 29 Apr 13:28:42 13:36:19 87° 263° (W) 13:44:33 435.465 / 435.565
ESTCUBE 1 29 Apr 13:30:42 13:34:39 30° 292° (WNW) 13:38:36 437.505/2401.250
JAS-2 29 Apr 13:46:14 13:51:57 66° 259° (W) 13:58:30 435.910
Oscar 19 29 Apr 13:54:16 13:59:24 74° 257° (WSW) 14:04:38 437.125/150
SPROUT 29 Apr 13:58:38 14:02:48 49° 288° (WNW) 14:06:56 437.525
ISS 29 Apr 14:03:26 14:06:15 26° 19° (NNE) 14:09:03 145.825
CUBEBUG 1 29 Apr 14:17:31 14:20:01 15° 298° (WNW) 14:22:31 437.445
ITUPSAT 1 29 Apr 14:23:15 14:26:18 17° 92° (E) 14:29:20 437.325
AO-7 29 Apr 14:29:16 14:36:12 31° 56° (NE) 14:43:08 29.400- 29.500
SWISSCUBE 29 Apr 14:34:11 14:38:03 24° 94° (E) 14:41:55 437.505
GONETS M04 29 Apr 14:35:18 14:41:25 22° 282° (WNW) 14:47:31
VELOX 1 29 Apr 14:35:47 14:36:36 10° 301° (WNW) 14:37:24 145.980
PHONESAT 2.4 29 Apr 14:38:45 14:41:52 57° 182° (S) 14:45:00 2401.200-2431.200
TISAT 1 29 Apr 14:47:24 14:51:29 47° 288° (WNW) 14:55:31 437.305
O/OREOS (USA 219) 29 Apr 14:50:47 14:52:51 13° 98° (E) 14:54:55 437.305
AO-85 29 Apr 14:52:29 14:57:51 55° 308° (NW) 15:03:10 145.980
Gurwin Techsat 1B 29 Apr 14:56:51 15:01:58 49° 261° (W) 15:07:09 435.225
ITAMSAT 1 29 Apr 15:04:09 15:09:20 88° 75° (ENE) 15:14:33 435.822/435.867
BEESAT 29 Apr 15:07:22 15:11:58 47° 100° (E) 15:16:33 436.000
CUSAT 1 29 Apr 15:14:16 15:15:53 13° 82° (E) 15:17:39 437.405
Cosmos 2499 29 Apr 15:24:06 15:28:24 16° 281° (WNW) 15:32:52 435.465 / 435.565
HORYU 2 29 Apr 15:30:20 15:31:43 11° 59° (ENE) 15:33:05 437.375
PCSat 29 Apr 15:38:39 15:41:30 15° 103° (ESE) 15:44:21 145.827
ISS 29 Apr 15:39:41 15:42:56 64° 217° (SW) 15:46:09 145.825
ITUPSAT 1 29 Apr 15:59:48 16:04:27 54° 288° (WNW) 16:09:05 437.325
SWISSCUBE 29 Apr 16:11:35 16:15:56 37° 291° (WNW) 16:20:18 437.505
MOZHAYETS 4 29 Apr 16:13:16 16:16:33 19° 92° (E) 16:19:50
PHONESAT 2.4 29 Apr 16:15:39 16:18:31 31° 198° (SSW) 16:21:22 2401.200-2431.200
AO-7 29 Apr 16:20:11 16:28:24 67° 255° (WSW) 16:36:41 29.400- 29.500
SO-50 29 Apr 16:23:05 16:27:19 31° 45° (NE) 16:31:26 436.795
O/OREOS (USA 219) 29 Apr 16:27:05 16:31:40 66° 295° (WNW) 16:36:16 437.305
AO-85 29 Apr 16:36:45 16:39:30 14° 328° (NNW) 16:42:14 145.980
KKS-1 29 Apr 16:37:15 16:41:39 52° 100° (E) 16:46:00 437.445
BEESAT 29 Apr 16:45:58 16:49:26 20° 296° (WNW) 16:52:53 436.000
ITAMSAT 1 29 Apr 16:48:00 16:49:29 11° 272° (W) 16:50:58 435.822/435.867
Cubesat XI-IV 29 Apr 16:52:14 16:53:41 11° 56° (NE) 16:55:08 437.490
CUSAT 1 29 Apr 16:54:29 16:57:26 30° 290° (WNW) 17:01:05 437.405
NOAA 15 29 Apr 17:01:23 17:05:08 20° 62° (ENE) 17:08:54 137.62
DANDE 29 Apr 17:02:57 17:05:38 66° 282° (WNW) 17:08:51 436.750
HORYU 2 29 Apr 17:03:07 17:07:36 83° 255° (WSW) 17:12:07 437.375
STARS 29 Apr 17:04:18 17:08:38 53° 100° (E) 17:12:56 437.465
PCSat 29 Apr 17:18:45 17:24:10 80° 301° (WNW) 17:29:39 145.827
BRITE-PL 29 Apr 17:25:33 17:28:41 17° 61° (ENE) 17:31:57 437.365/2234.400
NOAA 18 29 Apr 17:26:00 17:30:47 31° 65° (ENE) 17:35:34 137.9125
LilacSat-2 29 Apr 17:28:00 17:29:55 13° 64° (ENE) 17:31:50 437.200
Cosmos 2491 29 Apr 17:44:58 17:52:57 36° 70° (ENE) 18:00:50 435.465 / 435.565
CUTE-I 29 Apr 17:45:08 17:49:48 32° 66° (ENE) 17:54:28 437.470
CUBESAT XI-V 29 Apr 17:47:44 17:51:21 22° 93° (E) 17:54:59 437.345
MOZHAYETS 4 29 Apr 17:49:36 17:53:55 42° 289° (WNW) 17:58:13
YUBILEINY 29 Apr 18:02:53 18:07:54 17° 76° (ENE) 18:12:52 435.215
SO-50 29 Apr 18:03:32 18:07:52 36° 244° (WSW) 18:12:02 436.795
KKS-1 29 Apr 18:14:57 18:17:48 17° 297° (WNW) 18:20:37 437.445
AO-7 29 Apr 18:20:08 18:22:41 12° 274° (W) 18:25:15 29.400- 29.500
M-CUBED/EXP-1 PRIME 29 Apr 18:22:30 18:26:57 43° 66° (ENE) 18:31:24 437.505
Cubesat XI-IV 29 Apr 18:27:30 18:32:50 75° 74° (ENE) 18:38:10 437.490
NOAA 15 29 Apr 18:39:18 18:44:28 58° 259° (W) 18:49:41 137.62
STARS 29 Apr 18:41:51 18:44:34 16° 297° (WNW) 18:47:17 437.465
AUBIESAT-1 29 Apr 18:44:21 18:48:56 59° 68° (ENE) 18:53:29 437.475
HO-68 29 Apr 18:53:34 18:58:59 24° 57° (ENE) 19:04:23 435.675
GOMX 1 29 Apr 18:54:20 18:59:10 60° 73° (ENE) 19:04:21 467.674
LilacSat-2 29 Apr 19:00:01 19:03:48 50° 261° (W) 19:07:36 437.200
BRITE-PL 29 Apr 19:01:57 19:06:34 59° 261° (W) 19:11:37 437.365/2234.400
BEESAT 3 29 Apr 19:02:01 19:04:48 19° 112° (ESE) 19:07:36 437.485
BEESAT 2 29 Apr 19:03:51 19:05:07 11° 108° (ESE) 19:06:22 435.950
PCSat 29 Apr 19:05:09 19:08:28 16° 321° (NW) 19:11:49 145.827
NOAA 18 29 Apr 19:06:11 19:11:18 38° 262° (W) 19:16:25 137.9125
DOVE 4 29 Apr 19:09:08 19:13:52 43° 70° (ENE) 19:18:50 437.250
STRAND 1 29 Apr 19:13:48 19:16:47 15° 91° (E) 19:19:45 437.568
SEEDS 29 Apr 19:18:36 19:19:36 11° 61° (ENE) 19:20:36 437.485
CUBESAT XI-V 29 Apr 19:24:30 19:28:53 40° 289° (WNW) 19:33:14 437.345
CUTE-I 29 Apr 19:24:57 19:29:46 34° 263° (W) 19:34:37 437.470
Cosmos 2491 29 Apr 19:41:37 19:50:05 53° 271° (W) 19:58:28 435.465 / 435.565
CANX-2 29 Apr 19:43:42 19:47:23 30° 70° (ENE) 19:51:07 2200.000
YUBILEINY 29 Apr 19:54:32 20:03:17 85° 96° (E) 20:12:03 435.215
CUBEBUG 2 29 Apr 19:56:41 19:59:27 16° 63° (ENE) 20:02:13 437.445
M-CUBED/EXP-1 PRIME 29 Apr 19:57:53 20:01:35 23° 261° (W) 20:05:19 437.505
UWE-3 29 Apr 19:58:34 19:59:54 11° 60° (ENE) 20:01:14 435.000/436.395/437.385
Cosmos 2504 29 Apr 19:59:47 20:04:57 21° 82° (E) 20:10:01 435.465 / 435.565
AAUSAT CUBESAT 2 29 Apr 20:01:13 20:04:02 18° 66° (ENE) 20:06:51 437.432
Cubesat XI-IV 29 Apr 20:10:41 20:13:27 14° 270° (W) 20:16:15 437.490
CUTE 1.7 + AOD 2 29 Apr 20:16:39 20:20:49 62° 74° (ENE) 20:24:59 437.475
CINEMA 3 29 Apr 20:19:05 20:24:02 71° 74° (ENE) 20:29:04 145.822/145.860
AUBIESAT-1 29 Apr 20:20:49 20:23:41 16° 264° (W) 20:26:35 437.475
GOMX 1 29 Apr 20:34:34 20:37:43 17° 272° (W) 20:41:01 467.674
ZACube-1 29 Apr 20:35:38 20:38:41 18° 65° (ENE) 20:41:41 437.345
BEESAT 2 29 Apr 20:38:27 20:42:24 67° 305° (NW) 20:46:24 435.950
BEESAT 3 29 Apr 20:38:30 20:42:14 40° 309° (NW) 20:46:00 437.485
HO-68 29 Apr 20:38:51 20:46:01 75° 256° (WSW) 20:53:12 435.675
DOVE 4 29 Apr 20:47:42 20:51:44 24° 268° (W) 20:55:55 437.250
PRISM 29 Apr 20:49:13 20:52:45 26° 96° (E) 20:56:15 437.425
SEEDS 29 Apr 20:50:32 20:54:42 75° 258° (WSW) 20:58:54 437.485
STRAND 1 29 Apr 20:51:21 20:56:25 65° 287° (WNW) 21:01:28 437.568
COMPASS 1 29 Apr 21:00:37 21:04:44 80° 256° (WSW) 21:08:54 437.405
CANX-2 29 Apr 21:19:53 21:23:16 23° 266° (W) 21:26:41 2200.000
RS-15 29 Apr 21:21:10 21:30:11 29° 102° (ESE) 21:39:32 29.354- 29.394
Oscar 11 29 Apr 21:23:36 21:27:50 60° 74° (ENE) 21:32:06 145.826/435.025
FUNcube-1 29 Apr 21:29:46 21:34:14 59° 74° (ENE) 21:38:39 145.935
CUBEBUG 2 29 Apr 21:30:51 21:35:34 64° 259° (W) 21:40:16 437.445
UWE-3 29 Apr 21:31:00 21:35:41 88° 263° (W) 21:40:18 435.000/436.395/437.385
AAUSAT CUBESAT 2 29 Apr 21:35:23 21:39:15 39° 262° (W) 21:43:08 437.432
AIST 2 29 Apr 21:40:53 21:44:44 39° 117° (ESE) 21:48:37 435.215
DELFI C3 29 Apr 21:42:59 21:46:46 46° 73° (ENE) 21:50:33 145.870
AO-85 29 Apr 21:44:10 21:48:17 25° 42° (NE) 21:52:05 145.980
Cosmos 2504 29 Apr 21:50:18 21:57:36 67° 281° (W) 22:04:45 435.465 / 435.565
YUBILEINY 29 Apr 21:54:52 22:01:13 22° 298° (WNW) 22:07:37 435.215
CUTE 1.7 + AOD 2 29 Apr 21:55:35 21:57:04 12° 271° (W) 21:58:33 437.475
CINEMA 3 29 Apr 21:59:02 22:01:39 14° 271° (W) 22:04:18 145.822/145.860
HUMSAT D 29 Apr 22:08:51 22:12:50 41° 72° (ENE) 22:16:49 437.325/437.525
ZACube-1 29 Apr 22:10:10 22:14:35 49° 261° (W) 22:18:59 437.345
BEESAT 2 29 Apr 22:20:10 22:21:02 11° 325° (NW) 22:21:55 435.950
PRISM 29 Apr 22:24:29 22:28:01 27° 292° (WNW) 22:31:32 437.425
ANTELSAT 29 Apr 22:30:30 22:33:01 15° 91° (E) 22:35:30 437.575/2403.000
DX 1 29 Apr 22:30:54 22:31:57 11° 59° (ENE) 22:33:00 434.975-435.025
HO-68 29 Apr 22:32:09 22:34:51 12° 274° (W) 22:37:33 435.675
UKube-1 29 Apr 22:43:19 22:44:57 12° 60° (ENE) 22:46:35 .
AISAT 29 Apr 22:50:44 22:53:59 20° 65° (ENE) 22:57:15 437.250
ESTCUBE 1 29 Apr 22:54:21 22:58:08 28° 67° (ENE) 23:01:56 437.505/2401.250
Oscar 11 29 Apr 23:02:30 23:04:21 12° 270° (W) 23:06:13 145.826/435.025
FUNcube-1 29 Apr 23:08:25 23:10:49 14° 270° (W) 23:13:13 145.935
SPROUT 29 Apr 23:19:03 23:21:17 14° 62° (ENE) 23:23:31 437.525
DELFI C3 29 Apr 23:19:53 23:21:54 14° 269° (W) 23:23:55 145.870
AIST 2 29 Apr 23:19:59 23:23:22 24° 315° (NW) 23:26:45 435.215
UNISAT 6 29 Apr 23:23:21 23:27:40 57° 100° (E) 23:31:53 437.425
AO-85 29 Apr 23:24:26 23:29:01 46° 243° (WSW) 23:33:10 145.980
RS-15 29 Apr 23:29:56 23:41:16 80° 305° (NW) 23:53:19 29.354- 29.394
CUBEBUG 1 29 Apr 23:36:15 23:40:29 52° 73° (ENE) 23:44:48 437.445
TIGRISAT 29 Apr 23:42:06 23:46:30 86° 101° (E) 23:50:46 435.000
HUMSAT D 29 Apr 23:45:48 23:48:39 17° 268° (W) 23:51:29 437.325/437.525
GONETS M04 29 Apr 23:45:56 23:51:25 18° 77° (ENE) 23:56:54
Cosmos 2504 29 Apr 23:50:26 23:52:30 11° 302° (WNW) 23:54:33 435.465 / 435.565
NANOSAT C BR1 29 Apr 23:53:12 23:56:32 22° 94° (E) 23:59:51 145.865
VELOX 1 29 Apr 23:54:03 23:58:29 86° 75° (ENE) 00:02:57 145.980
50 SAT 29 Apr 23:54:39 23:58:19 76° 258° (WSW) 00:01:59 437.505
DX 1 30 Apr 00:03:06 00:07:28 83° 256° (WSW) 00:11:52 434.975-435.025
ANTELSAT 30 Apr 00:05:50 00:10:04 49° 288° (WNW) 00:14:11 437.575/2403.000
TISAT 1 30 Apr 00:06:08 00:08:18 14° 62° (ENE) 00:10:29 437.305
BUGSAT 1 30 Apr 00:09:01 00:11:31 15° 91° (E) 00:13:59 437.445
UKube-1 30 Apr 00:16:05 00:20:24 73° 257° (WSW) 00:24:45 .
Cosmos 2499 30 Apr 00:20:06 00:21:52 11° 76° (ENE) 00:23:38 435.465 / 435.565
PCSat 30 Apr 00:23:31 00:27:17 18° 41° (NE) 00:31:01 145.827
AISAT 30 Apr 00:25:59 00:30:10 41° 261° (W) 00:34:25 437.250
ESTCUBE 1 30 Apr 00:30:58 00:34:52 29° 264° (W) 00:38:48 437.505/2401.250
QB50P2 30 Apr 00:42:05 00:46:23 87° 107° (ESE) 00:50:36 145.880/145.840
POLYITAN 1 30 Apr 00:44:12 00:48:29 88° 105° (ESE) 00:52:42 437.675
DUCHIFAT 1 30 Apr 00:46:37 00:50:52 84° 100° (E) 00:55:04 145.980
POPSAT HIP 1 30 Apr 00:47:46 00:52:03 87° 284° (WNW) 00:56:16 437.405
QB50P1 30 Apr 00:51:21 00:55:38 79° 284° (WNW) 00:59:50 145.935-145.965
SPROUT 30 Apr 00:52:29 00:56:45 60° 259° (W) 01:01:02 437.525
JAS-2 30 Apr 00:54:34 01:00:22 22° 89° (E) 01:06:11 435.910
O/OREOS (USA 219) 30 Apr 00:57:31 01:01:30 29° 58° (ENE) 01:05:25 437.305
UNISAT 6 30 Apr 01:01:31 01:03:55 15° 298° (WNW) 01:06:17 437.425
CUBEBUG 1 30 Apr 01:14:38 01:17:07 15° 269° (W) 01:19:35 437.445
NANOSAT C BR1 30 Apr 01:28:32 01:32:19 32° 291° (WNW) 01:36:05 145.865
AIST 1 30 Apr 01:29:39 01:33:57 81° 280° (W) 01:38:19
ITUPSAT 1 30 Apr 01:30:38 01:34:17 22° 64° (ENE) 01:37:57 437.325
GONETS M04 30 Apr 01:38:03 01:46:55 89° 97° (E) 01:55:49
TISAT 1 30 Apr 01:39:17 01:43:28 59° 259° (W) 01:47:42 437.305
SWISSCUBE 30 Apr 01:41:19 01:45:28 31° 67° (ENE) 01:49:38 437.505
CUSAT 1 30 Apr 01:42:32 01:48:13 27° 69° (ENE) 01:54:35 437.405
BUGSAT 1 30 Apr 01:43:06 01:47:09 46° 288° (WNW) 01:51:09 437.445
RS-15 30 Apr 01:45:49 01:55:56 33° 334° (NNW) 02:06:31 29.354- 29.394
DANDE 30 Apr 01:55:25 01:59:04 16° 67° (ENE) 02:03:08 436.750
Oscar 19 30 Apr 02:05:14 02:10:03 37° 97° (E) 02:14:50 437.125/150
PCSat 30 Apr 02:05:56 02:11:24 86° 241° (WSW) 02:16:49 145.827
Cosmos 2499 30 Apr 02:06:31 02:13:37 76° 95° (E) 02:20:41 435.465 / 435.565
BEESAT 30 Apr 02:14:19 02:18:59 59° 72° (ENE) 02:23:40 436.000
O/OREOS (USA 219) 30 Apr 02:36:56 02:40:51 29° 256° (WSW) 02:44:43 437.305
JAS-2 30 Apr 02:38:16 02:46:00 80° 286° (WNW) 02:53:51 435.910
ITUPSAT 1 30 Apr 03:07:20 03:11:51 42° 261° (W) 03:16:24 437.325
Gurwin Techsat 1B 30 Apr 03:11:59 03:17:17 63° 102° (ESE) 03:22:32 435.225
MOZHAYETS 4 30 Apr 03:16:01 03:19:26 21° 65° (ENE) 03:22:51
ITAMSAT 1 30 Apr 03:16:38 03:21:07 29° 96° (E) 03:25:34 435.822/435.867
BEESAT 3 30 Apr 03:18:05 03:20:51 18° 42° (NE) 03:23:34 437.485
SWISSCUBE 30 Apr 03:19:06 03:23:14 29° 264° (W) 03:27:22 437.505
BEESAT 2 30 Apr 03:19:34 03:21:26 13° 38° (NE) 03:23:16 435.950
CUSAT 1 30 Apr 03:23:50 03:30:41 68° 264° (W) 03:38:36 437.405
KKS-1 30 Apr 03:35:44 03:40:05 53° 72° (ENE) 03:44:28 437.445
DANDE 30 Apr 03:36:10 03:42:21 84° 82° (E) 03:50:09 436.750
GONETS M04 30 Apr 03:38:44 03:45:00 21° 299° (WNW) 03:51:18
Oscar 19 30 Apr 03:44:48 03:49:14 29° 294° (WNW) 03:53:39 437.125/150
PCSat 30 Apr 03:52:11 03:53:55 11° 258° (WSW) 03:55:39 145.827
BEESAT 30 Apr 03:54:23 03:57:09 15° 269° (W) 03:59:55 436.000
STARS 30 Apr 04:01:21 04:05:39 51° 72° (ENE) 04:09:59 437.465
Cosmos 2499 30 Apr 04:02:41 04:07:32 19° 296° (WNW) 04:12:26 435.465 / 435.565
RS-15 30 Apr 04:04:02 04:13:33 26° 9° (N) 04:23:18 29.354- 29.394
AO-7 30 Apr 04:20:57 04:28:42 41° 99° (E) 04:36:26 29.400- 29.500
JAS-2 30 Apr 04:24:56 04:29:55 19° 305° (NW) 04:34:59 435.910
CUBESAT XI-V 30 Apr 04:51:56 04:55:34 23° 66° (ENE) 04:59:12 437.345
MOZHAYETS 4 30 Apr 04:52:01 04:56:20 41° 262° (W) 05:00:40
Gurwin Techsat 1B 30 Apr 04:53:07 04:56:44 19° 299° (WNW) 05:00:19 435.225
HORYU 2 30 Apr 04:54:24 04:57:22 17° 93° (E) 05:00:17 437.375
BEESAT 3 30 Apr 04:54:59 04:58:51 54° 241° (WSW) 05:02:42 437.485
BEESAT 2 30 Apr 04:55:53 04:59:53 89° 57° (ENE) 05:03:52 435.950
ITAMSAT 1 30 Apr 04:55:55 05:00:37 36° 293° (WNW) 05:05:18 435.822/435.867
CUSAT 1 30 Apr 05:09:09 05:11:56 13° 279° (W) 05:14:51 437.405
KKS-1 30 Apr 05:14:18 05:16:58 15° 269° (W) 05:19:38 437.445
DANDE 30 Apr 05:20:41 05:24:50 18° 273° (W) 05:29:31 436.750
STARS 30 Apr 05:39:40 05:42:19 15° 268° (W) 05:44:59 437.465
NOAA 18 30 Apr 05:49:45 05:50:57 11° 88° (E) 05:52:07 137.9125
AIST 2 30 Apr 06:01:26 06:05:15 34° 49° (NE) 06:09:02 435.215
CUTE-I 30 Apr 06:03:44 06:05:03 11° 88° (E) 06:06:21 437.470
YUBILEINY 30 Apr 06:03:59 06:12:13 44° 73° (ENE) 06:20:23 435.215
AO-7 30 Apr 06:13:41 06:21:32 48° 298° (WNW) 06:29:24 29.400- 29.500
RS-15 30 Apr 06:18:21 06:30:06 49° 41° (NE) 06:41:55 29.354- 29.394
CUBESAT XI-V 30 Apr 06:28:30 06:32:44 37° 263° (W) 06:37:01 437.345
HORYU 2 30 Apr 06:29:55 06:34:08 45° 289° (WNW) 06:38:20 437.375
STRAND 1 30 Apr 06:30:03 06:34:10 25° 64° (ENE) 06:38:17 437.568
LilacSat-2 30 Apr 06:33:44 06:36:08 16° 92° (E) 06:38:32 437.200
Cubesat XI-IV 30 Apr 06:44:27 06:48:58 28° 95° (E) 06:53:28 437.490
Cosmos 2491 30 Apr 06:47:13 06:55:10 40° 86° (E) 07:03:08 435.465 / 435.565
NOAA 15 30 Apr 06:53:33 06:58:44 50° 100° (E) 07:03:53 137.62
GOMX 1 30 Apr 06:56:18 07:00:15 20° 90° (E) 07:04:05 467.674
BRITE-PL 30 Apr 07:05:22 07:10:53 47° 98° (E) 07:16:19 437.365/2234.400
DOVE 4 30 Apr 07:09:42 07:11:40 12° 86° (E) 07:13:34 437.250
